This is the latest recevied weather packets stored in our database for station/object WW1TA. If no packets are shown the sender has not sent any weather packets the latest 10 day(s).
| Time | Temp. | Humidity | Pressure | Rain* | Wind** | Luminosity | Snow |
|---|---|---|---|---|---|---|---|
| 1777712006 | 16.67° C | 99% | 1013 hPa | 2.29 mm | - | 0 W/m² | - |
| 1777711703 | 16.67° C | 99% | 1012.9 hPa | 0.51 mm | - | 0 W/m² | - |
| 1777711399 | 16.67° C | 99% | 1012.3 hPa | 1.27 mm | - | 0 W/m² | - |
| 1777711095 | 16.67° C | 99% | 1012.3 hPa | 0.51 mm | - | 0 W/m² | - |
| 1777710792 | 16.67° C | 99% | 1012.5 hPa | 0.51 mm | - | 0 W/m² | - |
| 1777710489 | 16.67° C | 99% | 1012.6 hPa | 1.27 mm | - | 0 W/m² | - |
| 1777710186 | 16.67° C | 99% | 1012.6 hPa | 1.27 mm | - | 0 W/m² | - |
| 1777709883 | 16.67° C | 99% | 1013 hPa | 0.51 mm | - | 0 W/m² | - |
| 1777709581 | 16.67° C | 99% | 1013.1 hPa | 0 mm | - | 0 W/m² | - |
| 1777709278 | 16.67° C | 99% | 1012.5 hPa | 0.51 mm | - | 0 W/m² | - |
| 1777708975 | 16.67° C | 99% | 1012.8 hPa | 1.27 mm | - | 0 W/m² | - |
| 1777708672 | 16.67° C | 99% | 1012.7 hPa | 2.29 mm | - | 0 W/m² | - |
| 1777708370 | 16.67° C | 99% | 1012.5 hPa | 2.29 mm | - | 0 W/m² | - |
| 1777708068 | 16.67° C | 99% | 1013.1 hPa | 1.78 mm | - | 0 W/m² | - |
| 1777707765 | 16.67° C | 99% | 1013.1 hPa | 1.78 mm | - | 0 W/m² | - |
| 1777707461 | 16.67° C | 99% | 1012.8 hPa | 0.51 mm | - | 0 W/m² | - |
| 1777707157 | 16.67° C | 99% | 1012.9 hPa | 0 mm | - | 0 W/m² | - |
| 1777706855 | 16.67° C | 99% | 1012.8 hPa | 0.51 mm | - | 0 W/m² | - |
| 1777706552 | 16.67° C | 99% | 1012.9 hPa | 0.51 mm | - | 0 W/m² | - |
| 1777706250 | 16.67° C | 99% | 1012.7 hPa | 0 mm | - | 0 W/m² | - |
| 1777705948 | 16.67° C | 99% | 1012.6 hPa | 0.51 mm | - | 0 W/m² | - |
| 1777705646 | 16.67° C | 99% | 1012.6 hPa | 0.51 mm | - | 0 W/m² | - |
| 1777705343 | 16.67° C | 99% | 1012.7 hPa | 0 mm | - | 0 W/m² | - |
| 1777705041 | 16.67° C | 99% | 1012.8 hPa | 0.51 mm | - | 0 W/m² | - |
| 1777704739 | 16.67° C | 99% | 1013.1 hPa | 0.51 mm | - | 0 W/m² | - |
* Rain latest hour (hover to see other rain measurements)
** Current wind speed in m/s (hover to see current wind gust speed)